This is the latest recevied weather packets stored in our database for station/object KF0TNT. If no packets are shown the sender has not sent any weather packets the latest 1 day(s).
| Time | Temp. | Humidity | Pressure | Rain* | Wind** | Luminosity | Snow |
|---|---|---|---|---|---|---|---|
| 1778084990 | -2.22° C | 91% | 1019.4 hPa | 0 mm | - | 40 W/m² | - |
| 1778084083 | -2.22° C | 92% | 1019 hPa | 0 mm | - | 37 W/m² | - |
| 1778082867 | -2.22° C | 90% | 1019 hPa | 0 mm | - | 36 W/m² | - |
| 1778081446 | -2.22° C | 89% | 1018.7 hPa | 0 mm | - | 50 W/m² | - |
| 1778081143 | -2.22° C | 90% | 1018.7 hPa | 0 mm | - | 45 W/m² | - |
| 1778080841 | -2.22° C | 89% | 1018.5 hPa | 0 mm | - | 48 W/m² | - |
| 1778080236 | -2.22° C | 90% | 1018.7 hPa | 0 mm | - | 48 W/m² | - |
| 1778079023 | -2.22° C | 91% | 1018.2 hPa | 0 mm | - | 49 W/m² | - |
| 1778078719 | -2.22° C | 91% | 1018.2 hPa | 0 mm | - | 52 W/m² | - |
| 1778078417 | -2.22° C | 90% | 1018.2 hPa | 0 mm | - | 40 W/m² | - |
| 1778078115 | -2.22° C | 91% | 1018.4 hPa | 0 mm | - | 45 W/m² | - |
| 1778077813 | -2.78° C | 91% | 1018.4 hPa | 0 mm | - | 37 W/m² | - |
| 1778076906 | -2.22° C | 91% | 1018.4 hPa | 0 mm | - | 41 W/m² | - |
| 1778076301 | -2.78° C | 91% | 1018.2 hPa | 0 mm | - | 28 W/m² | - |
| 1778073572 | -2.78° C | 93% | 1017.6 hPa | 0 mm | - | 37 W/m² | - |
| 1778072360 | -3.33° C | 95% | 1017.4 hPa | 0 mm | - | 10 W/m² | - |
| 1778072058 | -3.33° C | 95% | 1017.7 hPa | 0 mm | - | 9 W/m² | - |
| 1778071453 | -3.33° C | 95% | 1017.6 hPa | 0 mm | - | 9 W/m² | - |
| 1778070546 | -3.33° C | 95% | 1017.3 hPa | 0 mm | - | 5 W/m² | - |
| 1778069334 | -3.33° C | 95% | 1016.9 hPa | 0 mm | - | 2 W/m² | - |
| 1778069032 | -3.33° C | 95% | 1016.9 hPa | 0 mm | - | 1 W/m² | - |
| 1778067218 | -3.33° C | 95% | 1017.3 hPa | 0 mm | - | 0 W/m² | - |
| 1778066008 | -3.33° C | 95% | 1016.5 hPa | 0 mm | - | 0 W/m² | - |
| 1778065098 | -2.78° C | 95% | 1016.5 hPa | 0 mm | - | 0 W/m² | - |
| 1778064795 | -2.78° C | 95% | 1016.5 hPa | 0 mm | - | 0 W/m² | - |
* Rain latest hour (hover to see other rain measurements)
** Current wind speed in m/s (hover to see current wind gust speed)